Regional Weather Roundup
Issued by NWS

Home | Current Version | Previous Version | Text Only | Print | Product List | Glossary On
Versions: 1 2 3 4 5 6 7 8 9 10 11 12 13 14 15 16 17 18 19 20 21 22 23 24 25 26 27 28 29 30 31 32 33 34 35 36 37 38 39 40 41 42 43 44 45 46 47 48 49 50
000
ASUS45 KTFX 281910
RWRMT
MONTANA REGIONAL WEATHER ROUNDUP
NATIONAL WEATHER SERVICE GREAT FALLS MT
100 PM MDT THU MAY 28 2015

NOTE: "FAIR" INDICATES FEW OR NO CLOUDS BELOW 12000 FEET WITH NO
SIGNIFICANT WEATHER AND/OR OBSTRUCTIONS TO VISIBILITY.

MTZ001>007-043-282000-
WEST OF THE DIVIDE

CITY           SKY/WX    TMP DP  RH WIND       PRES   REMARKS
KALISPELL      MOCLDY    71  45  39 NE13      30.11F
MISSOULA       MOSUNNY   67  47  48 SW7       30.12F
BUTTE          PTSUNNY   58  42  55 N7        30.16S
MULLAN PASS    RAIN      49  46  90 NW5       30.21S FOG
DEER LODGE       N/A     54  48  82 NE9       30.20R
EUREKA           N/A     64  50  59 CALM      30.14F
HAMILTON         N/A     66  46  48 E2        30.13F
LIBBY            N/A     72  48  43 CALM      30.10F
RONAN            N/A     65  52  62 W2        30.17S
$$

MTZ008-052>055-282000-
SOUTHWEST MONTANA

CITY           SKY/WX    TMP DP  RH WIND       PRES   REMARKS
BOZEMAN        RAIN      52  47  83 CALM      30.14R
DILLON         MOSUNNY   59  42  53 VRB3      30.13S
W YELLOWSTONE  LGT RAIN  46  41  81 CALM      30.17S
THREE FORKS      N/A     52  32  46 N6        30.12R
TWIN BRIDGES     N/A     61  44  53 NW8       30.11S
$$

MTZ009-010-012-014-046-048-049-054-282000-
EAST SLOPES AND CENTRAL MONTANA

CITY           SKY/WX    TMP DP  RH WIND       PRES   REMARKS
CUT BANK       CLOUDY    51  48  89 N26G32    30.18R FOG
GREAT FALLS    CLOUDY    56  52  86 NW16      30.13R
MALMSTROM AFB  PTSUNNY   57  49  74 NW13G20   30.14R
HELENA         CLOUDY    53  50  89 N7        30.16R
$$

MTZ011-013-016-021-045-047-050-051-282000-
NORTH CENTRAL MONTANA

CITY           SKY/WX    TMP DP  RH WIND       PRES   REMARKS
HAVRE          TSTM      60  48  64 NE6G29    30.03R
LEWISTOWN      CLOUDY    61  50  67 N10G20    30.06S
N BAR RANCH    FAIR      63  46  55 N10       30.08S
CHINOOK          N/A     57  52  82 CALM      30.02S
FORT BENTON      N/A     63  48  59 W23G30    30.08S
$$

MTZ017>020-022>027-061-062-282000-
NORTHEAST MONTANA

CITY           SKY/WX    TMP DP  RH WIND       PRES   REMARKS
GLASGOW        PTSUNNY   75  50  41 NE9       29.94F
JORDAN           N/A     72  50  45 N17       29.96S
SIDNEY         PTSUNNY   72  54  53 NW6       29.89S
WOLF POINT     PTSUNNY   75  53  46 N15G21    29.92S
PLENTYWOOD       N/A     70  52  52 N12G18    29.92S
POPLAR           N/A     72  52  49 N13G20    29.91S
$$

MTZ028>42-056>058-282000-
SOUTHCENTRAL AND SOUTHEAST MONTANA

CITY           SKY/WX    TMP DP  RH WIND       PRES   REMARKS
BAKER          PTSUNNY   73  50  44 NW13G22   29.94S
BILLINGS       PTSUNNY   66  48  52 SE7       30.01F
LIVINGSTON     LGT RAIN  53  47  79 W15       30.11R
MILES CITY     PTSUNNY   72  51  47 NW10G17   29.94F
BIG TIMBER       N/A     59  45  58 SW12      30.08S
$$

REGIONAL REPORTS...DAKOTAS

CITY           SKY/WX    TMP DP  RH WIND       PRES   REMARKS
WILLISTON      PTSUNNY   72  55  55 N9        29.89S
MINOT          CLOUDY    68  56  65 NW13      29.86S
DICKINSON      PTSUNNY   72  53  51 VRB5      29.89R
BEACH          FAIR      70  55  60 W14       29.92S
CROSBY         MOCLDY    68  57  68 N13G18    29.90F
WATFORD CITY   FAIR      68  57  68 NW9G17    29.87R
BISMARCK       PTSUNNY   77  56  48 MISG      29.87S
GRAND FORKS    PTSUNNY   74  61  63 S12G20    29.83F
FARGO          MOSUNNY   84  62  47 SW20G33   29.83F
BUFFALO SD       N/A     71  50  47 NW8       29.88R
RAPID CITY     LGT RAIN  66  54  65 NW14      29.95S
$$

REGIONAL REPORTS...WYOMING/IDAHO/WASHINGTON

CITY           SKY/WX    TMP DP  RH WIND       PRES   REMARKS
GILLETTE       CLOUDY    62  49  62 N7        30.01S
SHERIDAN       PTSUNNY   60  48  64 W9        30.03F
BUFFALO WY     CLOUDY    56  45  66 NW6       30.06F
CODY           CLOUDY    55  43  62 N10       30.10R
YELLOWSTONE LA   N/A     38  36  92 VRB3      30.22S
IDAHO FALLS    PTSUNNY   58  43  57 CALM      30.14F
SALMON         MOSUNNY   63  46  55 NW3       30.12F
BOISE          SUNNY     72  43  35 W10       30.09F
SPOKANE        MOSUNNY   72  50  45 S7        30.09F
$$

REGIONAL REPORTS...ALBERTA

CITY           SKY/WX    TMP DP  RH WIND       PRES   REMARKS
EDMONTON       SUNNY     50  28  43 NE12      30.31F
CALGARY        CLOUDY    48  43  81 N14       30.29R
LETHBRIDGE     LGT RAIN  48  46  93 N13G23    30.25R SMOKE
MEDICINE HAT   LGT RAIN  50  48  93 N16G24    30.19R
$$

REGIONAL REPORTS...SASKATCHEWAN

CITY           SKY/WX    TMP DP  RH WIND       PRES   REMARKS
SWIFT CURRENT  CLOUDY    50  48  93 N21G29    30.07R
REGINA         CLOUDY    66  46  48 N26G35    29.94R
SASKATOON      PTSUNNY   52  36  54 N22G32    30.15R
$$



USA.gov is the U.S. government's official web portal to all federal, state and local government web resources and services.